Tracking 20241 objects as of 26-Jan-2020
HD Live streaming from Space Station
objects crossing your sky now

COSMOS 2251 DEB

Track COSMOS 2251 DEB now!
10-day predictions


NORAD ID: 37306
Int'l Code: 1993-036BJW
Perigee: 634.0 km
Apogee: 761.1 km
Inclination: 74.1 °
Period: 98.6 minutes
Semi major axis: 7068 km
RCS: 0.0072 m2 (small)
Launch date: June 16, 1993
Source: Commonwealth of Independent States (former USSR) (CIS)
Launch site: PLESETSK MISSILE AND SPACE COMPLEX (PKMTR)

Note: This is SATELLITE DEBRIS
aabbcc
Your satellite tracking list
Your tracking list is empty




NASA's NSSDC Master Catalog

Two Line Element Set (TLE):
1 37306U 93036BJW 20025.45516806 +.00001056 +00000-0 +21050-3 0  9997
2 37306 074.0721 092.3411 0089959 307.5120 063.1410 14.60854989422759
Source of the keplerian elements: AFSPC